Location: Recife
(8.0585°S, 34.8848°W)
Time: 09:46:45
(UTC-03:00)

Transit 2A - Pass Details

Date: 23 April 2026
Orbit: 594 x 950 km, 66.7° (Epoch: 14 May)

Event Time Altitude Azimuth Distance (km) Brightness Sun altitude
Rises 07:45:34 0° 315° (NW) 2,874 8.8 33.4°
Reaches altitude 10° 07:48:14 10° 300° (WNW) 1,944 7.9 34.0°
Maximum altitude 07:51:37 22° 248° (WSW) 1,310 6.9 34.7°
Drops below altitude 10° 07:54:59 10° 196° (SSW) 1,930 7.9 35.5°
Sets 07:57:38 0° 181° (S) 2,848 8.8 36.1°
